FRS123 EDEL-EDDE

Flight info

Callsign FRS123
Flight time 1h 16m
Altitude 3500
Route DCT
Aircraft PA60/L-SDGY/S

Departure

Time 2026-05-04 18:17
Airport Langenlonsheim Airfield (EDEL)

Arrival

Time 2026-05-04 19:33
Airport Erfurt-Weimar Airport (EDDE)
Time Latitude Longitude Altitude Speed Heading
2026-05-04 17:47 49.91112 7.90768 291 ft 0 kts 186°
2026-05-04 18:06 49.91105 7.90767 297 ft 0 kts 186°
2026-05-04 18:09 49.91097 7.90771 293 ft 0 kts 142°
2026-05-04 18:14 49.91095 7.90774 293 ft 3 kts 142°
2026-05-04 18:14 49.91070 7.90813 293 ft 5 kts 128°
2026-05-04 18:14 49.91054 7.90823 294 ft 1 kts 175°
2026-05-04 18:15 49.91007 7.90816 303 ft 3 kts 170°
2026-05-04 18:15 49.91001 7.90820 303 ft 0 kts 146°
2026-05-04 18:16 49.91000 7.90820 303 ft 0 kts 146°
2026-05-04 18:16 49.90990 7.90830 307 ft 5 kts 148°
2026-05-04 18:16 49.90966 7.90847 304 ft 6 kts 185°
2026-05-04 18:17 49.90080 7.90339 575 ft 101 kts 207°
2026-05-04 18:17 49.89441 7.89787 1008 ft 114 kts 214°
2026-05-04 18:17 49.88773 7.87679 1662 ft 140 kts 315°
2026-05-04 18:18 49.89742 7.87491 1862 ft 158 kts 14°
2026-05-04 18:18 49.90806 7.88148 2124 ft 168 kts 28°
2026-05-04 18:18 49.91719 7.89271 2500 ft 171 kts 46°
2026-05-04 18:18 49.92585 7.90597 2750 ft 177 kts 43°
2026-05-04 18:19 49.94075 7.93591 3483 ft 179 kts 53°
2026-05-04 18:19 49.94830 7.95171 3555 ft 186 kts 53°
2026-05-04 18:19 49.95587 7.96754 3792 ft 183 kts 53°
2026-05-04 18:20 49.96417 7.98308 3793 ft 192 kts 41°
2026-05-04 18:20 49.97446 7.99616 3852 ft 184 kts 38°
2026-05-04 18:20 49.98476 8.00659 3770 ft 175 kts 27°
2026-05-04 18:20 49.99629 8.01327 3392 ft 175 kts 10°
2026-05-04 18:21 50.00803 8.01495 3088 ft 164 kts 358°
2026-05-04 18:21 50.01857 8.01281 2992 ft 143 kts 345°
2026-05-04 18:21 50.02815 8.00955 2786 ft 135 kts 348°
2026-05-04 18:21 50.03681 8.00681 2733 ft 118 kts 346°
2026-05-04 18:22 50.04505 8.00816 2620 ft 132 kts 34°
2026-05-04 18:22 50.05273 8.01719 2719 ft 141 kts 38°
2026-05-04 18:22 50.06131 8.02737 2526 ft 168 kts 34°
2026-05-04 18:22 50.07097 8.03809 2564 ft 172 kts 34°
2026-05-04 18:23 50.08071 8.04893 2637 ft 173 kts 34°
2026-05-04 18:23 50.09050 8.05982 2717 ft 173 kts 34°
2026-05-04 18:23 50.10037 8.07085 2743 ft 176 kts 34°
2026-05-04 18:23 50.11046 8.08205 2740 ft 180 kts 31°
2026-05-04 18:24 50.12180 8.08995 2730 ft 182 kts 20°
2026-05-04 18:24 50.13361 8.09700 2811 ft 178 kts 19°
2026-05-04 18:24 50.14498 8.10378 2936 ft 174 kts 19°
2026-05-04 18:24 50.15638 8.11066 2937 ft 178 kts 19°
2026-05-04 18:25 50.16804 8.11769 2910 ft 181 kts 19°
2026-05-04 18:25 50.17985 8.12478 2910 ft 182 kts 19°
2026-05-04 18:25 50.19166 8.13190 2917 ft 182 kts 19°
2026-05-04 18:25 50.20357 8.13907 2913 ft 185 kts 19°
2026-05-04 18:26 50.21577 8.14640 3000 ft 188 kts 19°
2026-05-04 18:26 50.22765 8.15353 3201 ft 185 kts 19°
2026-05-04 18:26 50.23980 8.16075 3275 ft 189 kts 19°
2026-05-04 18:26 50.25140 8.17058 3286 ft 195 kts 42°
2026-05-04 18:27 50.25941 8.18781 3390 ft 193 kts 58°
2026-05-04 18:27 50.26618 8.20528 3677 ft 186 kts 58°
2026-05-04 18:27 50.27299 8.22273 3753 ft 192 kts 58°
2026-05-04 18:27 50.28012 8.24102 3514 ft 210 kts 58°
2026-05-04 18:28 50.28769 8.26062 3669 ft 195 kts 58°
2026-05-04 18:28 50.29484 8.27909 3514 ft 211 kts 59°
2026-05-04 18:28 50.30234 8.29905 3295 ft 219 kts 59°
2026-05-04 18:28 50.30997 8.31959 3204 ft 217 kts 57°
2026-05-04 18:29 50.31839 8.33851 3153 ft 207 kts 52°
2026-05-04 18:29 50.32725 8.35625 2884 ft 209 kts 51°
2026-05-04 18:29 50.33753 8.36903 3307 ft 176 kts 21°
2026-05-04 18:29 50.34946 8.37080 3333 ft 174 kts 347°
2026-05-04 18:30 50.36553 8.34544 3202 ft 176 kts 281°
2026-05-04 18:30 50.36428 8.32666 3164 ft 176 kts 248°
2026-05-04 18:30 50.35667 8.31178 3111 ft 186 kts 216°
2026-05-04 18:31 50.34433 8.30467 3047 ft 196 kts 186°
2026-05-04 18:31 50.33070 8.30823 2974 ft 205 kts 157°
2026-05-04 18:31 50.31948 8.32200 2943 ft 207 kts 128°
2026-05-04 18:31 50.31365 8.34235 2961 ft 206 kts 99°
2026-05-04 18:32 50.31467 8.36447 2960 ft 206 kts 71°
2026-05-04 18:32 50.32227 8.38320 2964 ft 206 kts 42°
2026-05-04 18:32 50.33458 8.39403 2961 ft 205 kts 14°
2026-05-04 18:32 50.34873 8.39501 2960 ft 204 kts 354°
2026-05-04 18:33 50.36257 8.39082 2966 ft 202 kts 343°
2026-05-04 18:33 50.37460 8.37992 2974 ft 202 kts 315°
2026-05-04 18:33 50.38161 8.36146 2965 ft 202 kts 286°
2026-05-04 18:33 50.38197 8.33973 2958 ft 202 kts 258°
2026-05-04 18:34 50.37558 8.32037 2965 ft 202 kts 229°
2026-05-04 18:34 50.36470 8.30654 2971 ft 203 kts 213°
2026-05-04 18:34 50.35136 8.29945 2969 ft 205 kts 185°
2026-05-04 18:34 50.33746 8.30330 2968 ft 206 kts 156°
2026-05-04 18:35 50.32630 8.31720 2968 ft 208 kts 128°
2026-05-04 18:35 50.32011 8.33750 2950 ft 208 kts 106°
2026-05-04 18:35 50.31939 8.35980 2966 ft 207 kts 78°
2026-05-04 18:35 50.32547 8.37992 2968 ft 206 kts 52°
2026-05-04 18:36 50.33419 8.39780 2945 ft 207 kts 52°
2026-05-04 18:36 50.34257 8.41568 2960 ft 206 kts 54°
2026-05-04 18:36 50.35052 8.43445 2968 ft 207 kts 56°
2026-05-04 18:36 50.35835 8.45340 2966 ft 207 kts 56°
2026-05-04 18:37 50.36620 8.47235 2966 ft 208 kts 56°
2026-05-04 18:37 50.37406 8.49130 2968 ft 207 kts 56°
2026-05-04 18:37 50.38190 8.51026 2970 ft 208 kts 56°
2026-05-04 18:37 50.38974 8.52924 2960 ft 208 kts 56°
2026-05-04 18:38 50.39758 8.54825 2960 ft 208 kts 56°
2026-05-04 18:38 50.40520 8.56665 2957 ft 208 kts 56°
2026-05-04 18:38 50.41330 8.58611 2954 ft 207 kts 56°
2026-05-04 18:38 50.42115 8.60501 2965 ft 206 kts 56°
2026-05-04 18:39 50.42896 8.62396 2961 ft 207 kts 56°
2026-05-04 18:39 50.43668 8.64272 2958 ft 207 kts 56°
2026-05-04 18:39 50.44410 8.66075 2938 ft 208 kts 56°
2026-05-04 18:39 50.45194 8.67977 2955 ft 207 kts 56°
2026-05-04 18:40 50.45974 8.69866 2959 ft 207 kts 56°
2026-05-04 18:40 50.46761 8.71754 2961 ft 207 kts 52°
2026-05-04 18:40 50.47861 8.73164 2957 ft 206 kts 23°
2026-05-04 18:40 50.49247 8.73608 2960 ft 204 kts 359°
2026-05-04 18:41 50.50602 8.73057 2959 ft 202 kts 330°
2026-05-04 18:41 50.51714 8.71714 2952 ft 202 kts 322°
2026-05-04 18:41 50.52797 8.70365 2962 ft 201 kts 317°
2026-05-04 18:41 50.53553 8.68545 2955 ft 201 kts 288°
2026-05-04 18:42 50.53634 8.66367 2948 ft 202 kts 259°
2026-05-04 18:42 50.53020 8.64397 2955 ft 203 kts 230°
2026-05-04 18:42 50.51867 8.63135 2957 ft 205 kts 201°
2026-05-04 18:42 50.50466 8.62682 2962 ft 207 kts 189°
2026-05-04 18:43 50.49030 8.62394 2956 ft 209 kts 188°
2026-05-04 18:43 50.47588 8.62122 2959 ft 209 kts 188°
2026-05-04 18:43 50.46139 8.61857 2962 ft 210 kts 188°
2026-05-04 18:43 50.44688 8.61596 2959 ft 211 kts 188°
2026-05-04 18:44 50.43226 8.61491 2959 ft 210 kts 172°
2026-05-04 18:44 50.42310 8.61965 2960 ft 211 kts 152°
2026-05-04 18:44 50.41011 8.64147 2961 ft 210 kts 113°
2026-05-04 18:44 50.40759 8.66376 2967 ft 209 kts 84°
2026-05-04 18:45 50.41204 8.68514 2959 ft 208 kts 56°
2026-05-04 18:45 50.42234 8.70065 2957 ft 206 kts 28°
2026-05-04 18:45 50.43587 8.70754 2944 ft 205 kts 12°
2026-05-04 18:45 50.44968 8.71269 2944 ft 204 kts 14°
2026-05-04 18:46 50.46184 8.72351 2956 ft 203 kts 44°
2026-05-04 18:46 50.47085 8.74067 2956 ft 204 kts 50°
2026-05-04 18:46 50.47910 8.75723 2941 ft 181 kts 52°
2026-05-04 18:46 50.48454 8.77339 2937 ft 162 kts 69°
2026-05-04 18:47 50.48676 8.78980 2936 ft 147 kts 79°
2026-05-04 18:47 50.48824 8.80488 2939 ft 134 kts 79°
2026-05-04 18:47 50.48956 8.81882 2946 ft 128 kts 79°
2026-05-04 18:47 50.49086 8.83266 2961 ft 128 kts 79°
2026-05-04 18:48 50.49216 8.84655 2956 ft 129 kts 79°
2026-05-04 18:48 50.49347 8.86054 2956 ft 130 kts 79°
2026-05-04 18:48 50.49478 8.87462 2956 ft 131 kts 79°
2026-05-04 18:48 50.49610 8.88874 2954 ft 131 kts 79°
2026-05-04 18:49 50.49743 8.90273 2950 ft 131 kts 79°
2026-05-04 18:49 50.49879 8.91688 2949 ft 131 kts 79°
2026-05-04 18:49 50.50014 8.93102 2951 ft 131 kts 79°
2026-05-04 18:49 50.50151 8.94522 2951 ft 132 kts 79°
2026-05-04 18:50 50.50286 8.95941 2954 ft 131 kts 79°
2026-05-04 18:50 50.50420 8.97364 2956 ft 132 kts 79°
2026-05-04 18:50 50.50608 8.98776 2957 ft 132 kts 73°
2026-05-04 18:50 50.50883 9.00154 2954 ft 132 kts 69°
2026-05-04 18:51 50.51185 9.01522 2951 ft 133 kts 69°
2026-05-04 18:51 50.51484 9.02872 2952 ft 133 kts 69°
2026-05-04 18:51 50.51772 9.04254 2956 ft 134 kts 71°
2026-05-04 18:51 50.52035 9.05659 2956 ft 134 kts 71°
2026-05-04 18:52 50.52298 9.07063 2951 ft 134 kts 72°
2026-05-04 18:52 50.52560 9.08480 2952 ft 136 kts 72°
2026-05-04 18:52 50.52820 9.09906 2948 ft 136 kts 73°
2026-05-04 18:52 50.53037 9.11351 2938 ft 135 kts 75°
2026-05-04 18:53 50.53249 9.12782 2947 ft 134 kts 75°
2026-05-04 18:53 50.53464 9.14204 2954 ft 134 kts 75°
2026-05-04 18:53 50.53680 9.15634 2956 ft 135 kts 75°
2026-05-04 18:53 50.53897 9.17062 2955 ft 134 kts 75°
2026-05-04 18:54 50.54111 9.18477 2955 ft 135 kts 75°
2026-05-04 18:54 50.54330 9.19910 2960 ft 136 kts 75°
2026-05-04 18:54 50.54556 9.21393 2965 ft 143 kts 75°
2026-05-04 18:54 50.54797 9.22967 2967 ft 154 kts 75°
2026-05-04 18:55 50.55054 9.24601 2947 ft 162 kts 75°
2026-05-04 18:55 50.55598 9.28153 2951 ft 172 kts 75°
2026-05-04 18:55 50.55879 9.30010 2952 ft 179 kts 75°
2026-05-04 18:56 50.56174 9.31951 2956 ft 185 kts 75°
2026-05-04 18:56 50.56475 9.33947 2949 ft 189 kts 75°
2026-05-04 18:56 50.56772 9.35980 2950 ft 192 kts 75°
2026-05-04 18:56 50.57071 9.38015 2947 ft 193 kts 75°
2026-05-04 18:57 50.57373 9.40081 2962 ft 194 kts 75°
2026-05-04 18:57 50.57681 9.42151 2958 ft 195 kts 75°
2026-05-04 18:57 50.57994 9.44233 2958 ft 196 kts 75°
2026-05-04 18:57 50.58308 9.46323 2957 ft 196 kts 75°
2026-05-04 18:58 50.58623 9.48423 2945 ft 197 kts 75°
2026-05-04 18:58 50.58935 9.50523 2956 ft 197 kts 75°
2026-05-04 18:58 50.59249 9.52629 2951 ft 198 kts 75°
2026-05-04 18:58 50.59556 9.54683 2944 ft 198 kts 75°
2026-05-04 18:59 50.59871 9.56795 2950 ft 198 kts 75°
2026-05-04 18:59 50.60178 9.58872 2952 ft 197 kts 75°
2026-05-04 18:59 50.60563 9.60939 2944 ft 197 kts 65°
2026-05-04 18:59 50.61155 9.62871 2948 ft 196 kts 61°
2026-05-04 19:00 50.61773 9.64776 2953 ft 195 kts 61°
2026-05-04 19:00 50.62390 9.66677 2957 ft 195 kts 61°
2026-05-04 19:00 50.63005 9.68580 2956 ft 196 kts 61°
2026-05-04 19:00 50.63620 9.70487 2954 ft 195 kts 61°
2026-05-04 19:01 50.64237 9.72390 2959 ft 196 kts 61°
2026-05-04 19:01 50.64860 9.74303 2954 ft 196 kts 61°
2026-05-04 19:01 50.65473 9.76200 2953 ft 197 kts 61°
2026-05-04 19:01 50.66103 9.78148 2951 ft 197 kts 61°
2026-05-04 19:02 50.66713 9.80036 2952 ft 196 kts 61°
2026-05-04 19:02 50.67330 9.81948 2949 ft 195 kts 61°
2026-05-04 19:02 50.67945 9.83858 2958 ft 195 kts 61°
2026-05-04 19:02 50.68558 9.85765 2955 ft 194 kts 61°
2026-05-04 19:03 50.69164 9.87648 2948 ft 187 kts 61°
2026-05-04 19:03 50.69740 9.89424 2943 ft 177 kts 61°
2026-05-04 19:03 50.70288 9.91114 2949 ft 169 kts 61°
2026-05-04 19:03 50.70815 9.92738 2954 ft 164 kts 61°
2026-05-04 19:04 50.71325 9.94321 2951 ft 160 kts 61°
2026-05-04 19:04 50.71814 9.95839 2953 ft 156 kts 61°
2026-05-04 19:04 50.72346 9.97401 2980 ft 167 kts 52°
2026-05-04 19:04 50.73298 9.98492 2977 ft 176 kts 17°
2026-05-04 19:05 50.74522 9.98545 2959 ft 180 kts 344°
2026-05-04 19:05 50.75692 9.97762 2954 ft 185 kts 334°
2026-05-04 19:05 50.76842 9.96827 2945 ft 187 kts 329°
2026-05-04 19:05 50.77726 9.95347 2954 ft 188 kts 298°
2026-05-04 19:06 50.77985 9.93334 2960 ft 190 kts 267°
2026-05-04 19:06 50.77567 9.91353 2967 ft 194 kts 244°
2026-05-04 19:06 50.76889 9.89477 2955 ft 197 kts 242°
2026-05-04 19:06 50.76194 9.87600 2961 ft 198 kts 241°
2026-05-04 19:07 50.75498 9.85750 2960 ft 199 kts 241°
2026-05-04 19:07 50.74792 9.83870 2960 ft 199 kts 241°
2026-05-04 19:07 50.74080 9.81989 2961 ft 200 kts 241°
2026-05-04 19:07 50.73364 9.80096 2953 ft 201 kts 241°
2026-05-04 19:08 50.72644 9.78211 2955 ft 200 kts 241°
2026-05-04 19:08 50.71926 9.76335 2954 ft 199 kts 241°
2026-05-04 19:08 50.71208 9.74466 2957 ft 199 kts 241°
2026-05-04 19:08 50.70492 9.72595 2954 ft 199 kts 241°
2026-05-04 19:09 50.69752 9.70753 2945 ft 199 kts 232°
2026-05-04 19:09 50.68636 9.69537 2960 ft 199 kts 200°
2026-05-04 19:09 50.67282 9.69373 2958 ft 196 kts 169°
2026-05-04 19:09 50.66041 9.70106 2962 ft 182 kts 155°
2026-05-04 19:10 50.65114 9.71222 2929 ft 158 kts 123°
2026-05-04 19:10 50.64853 9.72733 2935 ft 133 kts 81°
2026-05-04 19:10 50.65119 9.73992 2923 ft 111 kts 64°
2026-05-04 19:10 50.65399 9.75082 2943 ft 107 kts 64°
2026-05-04 19:11 50.65678 9.76168 2972 ft 107 kts 64°
2026-05-04 19:11 50.65970 9.77280 2972 ft 112 kts 64°
2026-05-04 19:11 50.66276 9.78434 2969 ft 116 kts 64°
2026-05-04 19:11 50.66592 9.79625 2964 ft 120 kts 64°
2026-05-04 19:12 50.66922 9.80849 2974 ft 126 kts 64°
2026-05-04 19:12 50.67642 9.83508 2976 ft 139 kts 62°
2026-05-04 19:12 50.68105 9.84886 2964 ft 145 kts 57°
2026-05-04 19:13 50.68615 9.86273 2961 ft 149 kts 57°
2026-05-04 19:13 50.69148 9.87684 2965 ft 148 kts 57°
2026-05-04 19:13 50.69675 9.89077 2958 ft 147 kts 57°
2026-05-04 19:13 50.70191 9.90449 2946 ft 145 kts 57°
2026-05-04 19:14 50.70680 9.91798 2956 ft 142 kts 57°
2026-05-04 19:14 50.71146 9.93161 2954 ft 141 kts 62°
2026-05-04 19:14 50.71566 9.94535 2958 ft 137 kts 62°
2026-05-04 19:14 50.71979 9.95885 2957 ft 136 kts 62°
2026-05-04 19:15 50.72385 9.97225 2957 ft 134 kts 62°
2026-05-04 19:15 50.72784 9.98557 2961 ft 135 kts 62°
2026-05-04 19:15 50.73190 9.99898 2956 ft 135 kts 62°
2026-05-04 19:15 50.73593 10.01240 2959 ft 137 kts 62°
2026-05-04 19:16 50.74000 10.02610 2971 ft 138 kts 62°
2026-05-04 19:16 50.74407 10.04000 2973 ft 141 kts 62°
2026-05-04 19:16 50.74831 10.05415 2965 ft 144 kts 62°
2026-05-04 19:16 50.75253 10.06840 2966 ft 146 kts 62°
2026-05-04 19:17 50.75691 10.08298 2964 ft 148 kts 62°
2026-05-04 19:17 50.76129 10.09762 2962 ft 148 kts 62°
2026-05-04 19:17 50.76565 10.11233 2966 ft 148 kts 62°
2026-05-04 19:17 50.77007 10.12694 2951 ft 146 kts 62°
2026-05-04 19:18 50.77455 10.14153 2978 ft 151 kts 62°
2026-05-04 19:18 50.77921 10.15672 2975 ft 156 kts 62°
2026-05-04 19:18 50.78404 10.17230 2973 ft 162 kts 62°
2026-05-04 19:18 50.78899 10.18848 2967 ft 165 kts 62°
2026-05-04 19:19 50.79390 10.20444 2960 ft 167 kts 62°
2026-05-04 19:19 50.79899 10.22101 2958 ft 169 kts 62°
2026-05-04 19:19 50.80412 10.23777 2968 ft 170 kts 62°
2026-05-04 19:19 50.80926 10.25464 2967 ft 170 kts 62°
2026-05-04 19:20 50.81267 10.26581 2965 ft 171 kts 62°
2026-05-04 19:20 50.81786 10.28284 2962 ft 172 kts 62°
2026-05-04 19:20 50.82315 10.30016 2970 ft 179 kts 62°
2026-05-04 19:20 50.83054 10.32420 2971 ft 188 kts 62°
2026-05-04 19:21 50.83646 10.34295 2966 ft 192 kts 60°
2026-05-04 19:21 50.84302 10.36143 2972 ft 194 kts 58°
2026-05-04 19:21 50.84982 10.37991 2972 ft 195 kts 58°
2026-05-04 19:21 50.85661 10.39863 2962 ft 196 kts 58°
2026-05-04 19:22 50.86114 10.41110 2971 ft 197 kts 58°
2026-05-04 19:22 50.86790 10.43001 2976 ft 198 kts 58°
2026-05-04 19:22 50.87471 10.44904 2966 ft 198 kts 58°
2026-05-04 19:22 50.88148 10.46785 2962 ft 195 kts 58°
2026-05-04 19:23 50.88816 10.48637 2973 ft 192 kts 58°
2026-05-04 19:23 50.89453 10.50412 2960 ft 190 kts 58°
2026-05-04 19:23 50.90103 10.52222 2969 ft 188 kts 58°
2026-05-04 19:23 50.90746 10.54019 2964 ft 187 kts 58°
2026-05-04 19:24 50.91382 10.55784 2973 ft 187 kts 58°
2026-05-04 19:24 50.91919 10.57648 2970 ft 186 kts 77°
2026-05-04 19:24 50.91911 10.59701 2989 ft 189 kts 94°
2026-05-04 19:24 50.91784 10.61788 2974 ft 191 kts 94°
2026-05-04 19:25 50.91652 10.63882 2982 ft 191 kts 94°
2026-05-04 19:25 50.91520 10.65978 2976 ft 192 kts 94°
2026-05-04 19:25 50.91385 10.68071 2980 ft 191 kts 94°
2026-05-04 19:25 50.91249 10.70164 2981 ft 191 kts 94°
2026-05-04 19:26 50.91115 10.72259 2979 ft 192 kts 94°
2026-05-04 19:26 50.90977 10.74364 2974 ft 192 kts 94°
2026-05-04 19:26 50.90838 10.76453 2957 ft 191 kts 94°
2026-05-04 19:26 50.90698 10.78517 2954 ft 191 kts 94°
2026-05-04 19:27 50.90559 10.80602 2957 ft 190 kts 94°
2026-05-04 19:27 50.90416 10.82682 2961 ft 190 kts 94°
2026-05-04 19:27 50.90277 10.84768 2953 ft 191 kts 94°
2026-05-04 19:27 50.90145 10.86719 2951 ft 190 kts 95°
2026-05-04 19:28 50.89996 10.88861 2951 ft 188 kts 94°
2026-05-04 19:28 50.89857 10.90925 2947 ft 187 kts 94°
2026-05-04 19:28 50.89798 10.92892 2955 ft 172 kts 78°
2026-05-04 19:28 50.90290 10.94479 2960 ft 158 kts 51°
2026-05-04 19:29 50.90958 10.95811 2941 ft 151 kts 49°
2026-05-04 19:29 50.91578 10.97050 2858 ft 131 kts 50°
2026-05-04 19:29 50.92085 10.98174 2538 ft 118 kts 54°
2026-05-04 19:29 50.92473 10.99276 2278 ft 108 kts 62°
2026-05-04 19:30 50.92786 11.00338 2063 ft 109 kts 64°
2026-05-04 19:30 50.93266 11.01274 1876 ft 112 kts 33°
2026-05-04 19:30 50.93872 11.01953 1708 ft 107 kts 35°
2026-05-04 19:30 50.94491 11.02614 1551 ft 108 kts 28°
2026-05-04 19:31 50.95190 11.03066 1443 ft 111 kts 15°
2026-05-04 19:31 50.95934 11.03162 1478 ft 105 kts 355°
2026-05-04 19:31 50.96649 11.03067 1500 ft 103 kts 349°
2026-05-04 19:31 50.97287 11.02622 1469 ft 103 kts 310°
2026-05-04 19:32 50.97522 11.01579 1394 ft 104 kts 272°
2026-05-04 19:32 50.97610 11.00432 1322 ft 104 kts 274°
2026-05-04 19:32 50.97701 10.99332 1220 ft 99 kts 271°
2026-05-04 19:32 50.97785 10.98259 1094 ft 96 kts 273°
2026-05-04 19:33 50.97861 10.97270 1046 ft 86 kts 273°
2026-05-04 19:33 50.97922 10.96445 1035 ft 61 kts 278°
2026-05-04 19:33 50.97965 10.95829 1034 ft 51 kts 275°
2026-05-04 19:33 50.97992 10.95400 1039 ft 16 kts 228°
2026-05-04 19:34 50.97912 10.95369 1039 ft 0 kts 187°
2026-05-04 19:34 50.97911 10.95369 1039 ft 0 kts 187°
2026-05-04 19:34 50.97911 10.95368 1039 ft 0 kts 187°
2026-05-04 19:35 50.97881 10.95363 1039 ft 11 kts 187°
2026-05-04 19:35 50.97806 10.95401 1038 ft 16 kts 109°
2026-05-04 19:35 50.97783 10.95625 1037 ft 23 kts 97°
2026-05-04 19:35 50.97760 10.95862 1036 ft 17 kts 104°
2026-05-04 19:36 50.97683 10.95936 1035 ft 13 kts 185°
2026-05-04 19:36 50.97642 10.95968 1035 ft 9 kts 101°
2026-05-04 19:36 50.97640 10.96069 1035 ft 9 kts 90°
2026-05-04 19:36 50.97634 10.96173 1034 ft 10 kts 99°
2026-05-04 19:37 50.97610 10.96233 1034 ft 6 kts 164°
2026-05-04 19:37 50.97601 10.96232 1034 ft 0 kts 203°
2026-05-04 19:37 50.97593 10.96211 1034 ft 0 kts 267°
2026-05-04 19:38 50.97589 10.96197 1034 ft 1 kts 221°
2026-05-04 19:38 50.97560 10.96214 1034 ft 4 kts 115°
2026-05-04 19:38 50.97558 10.96224 1034 ft 1 kts 97°
2026-05-04 19:39 50.97558 10.96231 1034 ft 1 kts 95°
2026-05-04 19:39 50.97557 10.96235 1034 ft 0 kts 95°
2026-05-04 19:43 50.97557 10.96240 1034 ft 1 kts 95°
2026-05-04 19:43 50.97556 10.96270 1034 ft 5 kts 95°
2026-05-04 19:43 50.97552 10.96339 1033 ft 8 kts 95°
2026-05-04 19:43 50.97547 10.96436 1033 ft 10 kts 95°
2026-05-04 19:44 50.97545 10.96465 1033 ft 0 kts 95°
2026-05-04 19:44 50.97519 10.96426 1033 ft 14 kts 282°
2026-05-04 19:44 50.97523 10.96401 1033 ft 0 kts 274°